La Villa, Italy 16 day weather forecast

Slopes altitude range -1 m - -1m

Number of lifts: -1 Pistes: -1km

In some cases the lift and piste totals shown are for the ski domain (e.g. Three Valleys) rather than individual resort (e.g. Courchevel)

Overview

The 16 day weather forecast is fully updated 4 times every day.

    • Wed 26 JUN 2019
    • Wed 26
    • 17C 27C
    • Thu 27 JUN 2019
    • Thu 27
    • 19C 27C
    • Fri 28 JUN 2019
    • Fri 28
    • 16C 24C
    • Sat 29 JUN 2019
    • Sat 29
    • 14C 22C
    • Sun 30 JUN 2019
    • Sun 30
    • 15C 25C
    • Mon 01 JUL 2019
    • Mon 01
    • 18C 25C
    • Tue 02 JUL 2019
    • Tue 02
    • 15C 23C
    • Wed 03 JUL 2019
    • Wed 03
    • 13C 15C
    • Thu 04 JUL 2019
    • Thu 04
    • 12C 19C
    • Fri 05 JUL 2019
    • Fri 05
    • 14C 19C
    • Sat 06 JUL 2019
    • Sat 06
    • 8C 11C
    • Sun 07 JUL 2019
    • Sun 07
    • 8C 17C
    • Mon 08 JUL 2019
    • Mon 08
    • 14C 21C
    • Tue 09 JUL 2019
    • Tue 09
    • 15C 20C
    • Wed 10 JUL 2019
    • Wed 10
    • 14C 19C
    • Thu 11 JUL 2019
    • Thu 11
    • 14C 20C

Date:

Time Type 0°C level Temp Chill Snow Cloud Speed Gust Dir Press
3:00 4606m 12°C 12_4 0cm 0% 4mph 4mph 1025mB
6:00 4602m 12°C 12_4 0cm 0% 4mph 6mph 1025mB
9:00 4597m 17°C 17_2 0cm 0% 2mph 5mph 1025mB
12:00 4504m 27°C 27_2 0cm 0% 2mph 10mph 1024mB
15:00 4578m 27°C 27_4 0cm 1% 4mph 9mph 1023mB
18:00 4565m 27°C 27_3 0cm 2% 3mph 3mph 1024mB
21:00 4617m 14°C 14_3 0cm 0% 3mph 4mph 1025mB
0:00 4623m 14°C 14_4 0cm 19% 4mph 5mph 1025mB
3:00 4617m 13°C 13_5 0cm 2% 5mph 5mph 1024mB
6:00 4581m 13°C 13_4 0cm 1% 4mph 5mph 1023mB
9:00 4587m 19°C 19_5 0cm 0% 5mph 12mph 1021mB
12:00 4503m 27°C 27_8 0cm 0% 8mph 14mph 1020mB
15:00 4451m 26°C 26_7 0cm 0% 7mph 16mph 1019mB
18:00 4581m 26°C 26_5 0cm 19% 5mph 6mph 1018mB
21:00 4710m 14°C 14_6 0cm 6% 6mph 7mph 1020mB
0:00 4693m 12°C 12_6 0cm 3% 6mph 7mph 1020mB
3:00 4595m 11°C 11_6 0cm 0% 6mph 7mph 1020mB
6:00 4565m 11°C 11_6 0cm 0% 6mph 8mph 1019mB
9:00 4563m 16°C 16_5 0cm 0% 5mph 7mph 1018mB
12:00 4252m 24°C 24_4 0cm 0% 4mph 9mph 1017mB
15:00 4331m 25°C 25_2 0cm 0% 2mph 8mph 1017mB
18:00 4378m 25°C 25_2 0cm 3% 2mph 4mph 1018mB
21:00 4673m 12°C 12_0 0cm 0% 0mph 1mph 1021mB
0:00 4699m 11°C 11_2 0cm 10% 2mph 3mph 1021mB
3:00 4656m 11°C 11_1 0cm 57% 1mph 2mph 1020mB
6:00 4733m 10°C 10_1 0cm 37% 1mph 2mph 1020mB
9:00 4776m 14°C 14_1 0cm 5% 1mph 4mph 1019mB
12:00 4802m 22°C 22_6 0cm 8% 6mph 5mph 1018mB
15:00 4888m 22°C 22_7 0cm 15% 7mph 6mph 1018mB
18:00 4944m 22°C 22_5 0cm 34% 5mph 6mph 1019mB
21:00 4954m 14°C 14_2 0cm 80% 2mph 3mph 1021mB
0:00 4839m 14°C 14_1 0cm 90% 1mph 2mph 1021mB
3:00 4767m 12°C 12_3 0cm 79% 3mph 3mph 1020mB
6:00 4763m 12°C 12_3 0cm 63% 3mph 4mph 1020mB
9:00 4733m 15°C 15_1 0cm 10% 1mph 2mph 1020mB
12:00 4651m 25°C 25_4 0cm 5% 4mph 5mph 1019mB
15:00 4585m 24°C 24_6 0cm 27% 6mph 7mph 1018mB
18:00 4673m 24°C 24_4 0cm 42% 4mph 4mph 1019mB
21:00 4585m 14°C 14_1 0cm 99% 1mph 2mph 1021mB
0:00 4556m 13°C 13_3 0cm 66% 3mph 4mph 1021mB
3:00 4532m 12°C 12_3 0cm 0% 3mph 3mph 1020mB
6:00 4471m 12°C 12_1 0cm 0% 1mph 1mph 1019mB
9:00 4436m 18°C 18_3 0cm 0% 3mph 3mph 1018mB
12:00 4390m 25°C 25_8 0cm 3% 8mph 6mph 1017mB
15:00 4427m 22°C 22_6 0cm 89% 6mph 8mph 1016mB
18:00 4298m 22°C 22_3 0cm 93% 3mph 7mph 1019mB
21:00 4193m 10°C 10_7 0cm 100% 7mph 7mph 1020mB
0:00 4220m 10°C 10_3 0cm 100% 3mph 4mph 1019mB
3:00 4170m 10°C 10_3 0cm 100% 3mph 3mph 1017mB
6:00 4209m 10°C 10_3 0cm 99% 3mph 3mph 1017mB
9:00 4191m 15°C 15_1 0cm 65% 1mph 3mph 1016mB
12:00 4190m 23°C 23_6 0cm 70% 6mph 8mph 1016mB
15:00 4108m 18°C 18_5 0cm 100% 5mph 6mph 1016mB
18:00 3972m 18°C 18_0 0cm 100% 0mph 1mph 1017mB
21:00 4051m 12°C 12_1 0cm 100% 1mph 1mph 1018mB
0:00 4088m 10°C 10_1 0cm 100% 1mph 2mph 1018mB
3:00 3975m 9°C 9_2 0cm 99% 2mph 3mph 1018mB
6:00 3953m 9°C 9_2 0cm 94% 2mph 3mph 1018mB
9:00 3908m 13°C 13_5 0cm 99% 5mph 5mph 1019mB
12:00 3934m 15°C 15_3 0cm 99% 3mph 4mph 1018mB
15:00 3873m 13°C 13_4 0cm 100% 4mph 4mph 1019mB
18:00 4005m 14°C 14_4 0cm 100% 4mph 4mph 1019mB
21:00 4105m 7°C 7_3 0cm 98% 3mph 4mph 1020mB
0:00 4168m 6°C 6_2 0cm 98% 2mph 3mph 1019mB
3:00 4089m 5°C 5_2 0cm 100% 2mph 3mph 1018mB
6:00 3966m 5°C 5_3 0cm 74% 3mph 3mph 1018mB
9:00 3960m 12°C 12_4 0cm 23% 4mph 2mph 1017mB
12:00 3944m 19°C 19_3 0cm 45% 3mph 3mph 1016mB
15:00 4003m 19°C 19_2 0cm 84% 2mph 3mph 1016mB
18:00 4067m 19°C 19_1 0cm 88% 1mph 2mph 1017mB
21:00 4120m 9°C 9_1 0cm 89% 1mph 2mph 1018mB
0:00 4105m 8°C 8_2 0cm 94% 2mph 3mph 1018mB
3:00 4023m 6°C 6_1 0cm 54% 1mph 1mph 1018mB
6:00 3998m 6°C 6_1 0cm 31% 1mph 2mph 1017mB
9:00 4043m 14°C 14_1 0cm 16% 1mph 3mph 1017mB
12:00 4126m 19°C 19_3 0cm 36% 3mph 4mph 1016mB
15:00 4180m 20°C 20_1 0cm 70% 1mph 3mph 1015mB
18:00 4170m 20°C 20_2 0cm 71% 2mph 3mph 1017mB
21:00 4062m 11°C 11_3 0cm 100% 3mph 4mph 1019mB
0:00 4056m 9°C 9_5 0cm 100% 5mph 6mph 1019mB
Afternoon 0.791667mm 1.5625 3729m 11°C 11_10 0cm 87% 10mph 10mph 1018mB
Morning 0mm 0 3565m 3°C 3_7 0cm 49% 7mph 7mph 1025mB
Afternoon 0mm 0 3903m 17°C 17_3 0cm 0% 3mph 3mph 1020mB
Morning 0mm 0 4423m 5°C 5_2 0cm 21% 2mph 3mph 1021mB
Afternoon 0mm 0 4180m 21°C 21_3 0cm 57% 3mph 11mph 1017mB
Morning 0.125mm 0.375 4203m 9°C 9_0 0cm 100% 0mph 1mph 1019mB
Afternoon 0.3125mm 0.9375 4260m 20°C 20_5 0cm 90% 5mph 4mph 1016mB
Morning 0.125mm 0.375 4192m 9°C 9_2 0cm 100% 2mph 2mph 1018mB
Afternoon 0.916667mm 2.75 4098m 19°C 19_9 0cm 67% 9mph 7mph 1016mB
Morning 0mm 0 3950m 7°C 7_3 0cm 92% 3mph 3mph 1017mB
Afternoon 0.166667mm 0.5 4031m 20°C 20_1 0cm 16% 1mph 4mph 1012mB
Morning 0.0208333mm 0.0625 3943m 7°C 7_3 0cm 95% 3mph 3mph 1010mB

16 day outlook at a glance

Forecast issued: 6/26/2019 8:46:08 AM

Chat

Your comments and questions. In a resort? Let us know what it's like!


Characters left 250

For terms and conditions see Readers Comments on the Cookie and privacy policy page.